Regional Weather Roundup
Issued by NWS

Home | Current Version | Previous Version | Graphics & Text | Print | Product List | Glossary On
Versions: 1 2 3 4 5 6 7 8 9 10 11 12 13 14 15 16 17 18 19 20 21 22 23 24 25 26 27 28 29 30 31 32 33 34 35 36 37 38 39 40 41 42 43 44 45 46 47 48 49 50
868
ASUS43 KDMX 121208
RWRIA

WEATHER ROUNDUP FOR IOWA
NATIONAL WEATHER SERVICE DES MOINES IA
600 AM CST FRI FEB 12 2016

NOTE: "FAIR" INDICATES FEW OR NO CLOUDS BELOW 12,000 FEET WITH NO
SIGNIFICANT WEATHER AND/OR OBSTRUCTIONS TO VISIBILITY.

* - THESE STATIONS ARE NOT NWS STATIONS...THUS NOT UNDER NWS
QUALITY CONTROL.  THEY ALSO DO NOT REPORT WEATHER SUCH
AS PRECIPITATION OR FOG.

IAZ001>003-012>014-020>022-031>034-043>046-121300-
   NORTHWEST IOWA

CITY           SKY/WX    TMP DP  RH WIND       PRES   REMARKS
CARROLL *      CLOUDY    18  16  93 N16G22    30.29R WCI   3
CHEROKEE *     CLOUDY    17  13  86 NW10      30.33R WCI   4
DENISON *      CLOUDY    18  16  93 N10       30.30R WCI   6
LE MARS *      CLOUDY    19  18  93 N10       30.37R WCI   8
ORANGE CITY *  CLOUDY    18  14  86 N10       30.33R WCI   6
SHELDON *      CLOUDY    14  12  92 N20       30.31R WCI  -3
SIOUX CITY     CLOUDY    20  15  81 NW14      30.37R WCI   7
6HR MIN TEMP:  14; 6HR MAX TEMP:  20;

SPENCER        CLOUDY    13   8  81 NW20      30.32R WCI  -5
6HR MIN TEMP:   9; 6HR MAX TEMP:  17; 6HR PCP: TRACE;

STORM LAKE *   CLOUDY    16  16 100 NW15      30.30R WCI   1
$$

IAZ055>058-069>071-079>083-090>094-121300-
   SOUTHWEST IOWA

CITY           SKY/WX    TMP DP  RH WIND       PRES   REMARKS
ATLANTIC *     CLOUDY    19  16  86 N13       30.32R WCI   7
AUDUBON *      CLOUDY    18  14  86 NW9       30.30R WCI   6
CLARINDA *     CLOUDY    25  21  86 N15G21    30.33R WCI  12
COUNCIL BLFS * CLOUDY    19  18  93 N16       30.33R WCI   5
CRESTON *      CLOUDY    21  18  86 NW17G23   30.28R WCI   7
HARLAN  *      CLOUDY    18  16  93 N12       30.35S WCI   5
LAMONI         CLOUDY    23  19  85 NW10      30.25R WCI  12
6HR MIN TEMP:  21; 6HR MAX TEMP:  23;

RED OAK *      CLOUDY    23  19  86 N17G24    30.33R WCI   9
SHENANDOAH *   CLOUDY    25  23  93 N13G20    30.34R WCI  13
$$

IAZ047>049-059>061-072>074-084-121300-
   CENTRAL IOWA

CITY           SKY/WX    TMP DP  RH WIND       PRES   REMARKS
AMES           CLOUDY    18  13  80 NW12      30.28R WCI   5
6HR MIN TEMP:  15; 6HR MAX TEMP:  18;

ANKENY *       CLOUDY    19  16  86 NW14      30.29R WCI   6
BOONE *        CLOUDY    18  12  79 NW12      30.26R WCI   5
CHARITON *     CLOUDY    21  18  86 NW12G18   30.25R WCI   9
DES MOINES     FLURRIES  20  13  74 N16       30.29R WCI   6
6HR MIN TEMP:  19; 6HR MAX TEMP:  20; 6HR PCP: TRACE;

GRINNELL*      CLOUDY    19  16  86 NW17G23   30.25R WCI   4
KNOXVILLE *    CLOUDY    19  16  86 NW15      30.24R WCI   5
MARSHALLTOWN   CLOUDY    17  13  84 NW16      30.24R WCI   2
6HR MIN TEMP:  16; 6HR MAX TEMP:  18;

NEWTON *       FLURRIES  19  16  86 NW16      30.26R WCI   5
PELLA *        CLOUDY    20  17  88 NW17G23   30.27R WCI   6
$$

IAZ004>006-015-016-023>025-035-036-121300-
   NORTH CENTRAL IOWA

CITY           SKY/WX    TMP DP  RH WIND       PRES   REMARKS
ALGONA *       CLOUDY    16  12  86 NW17G23   30.28R WCI   0
CLARION *      FLURRIES  16  12  86 NW16      30.26R WCI   0
ESTHERVILLE    CLOUDY    12   8  84 NW17      30.29R WCI  -5
6HR MIN TEMP:   8; 6HR MAX TEMP:  15; 6HR PCP: TRACE;

FORT DODGE *   CLOUDY    16  10  79 NW8       30.28S WCI   5
MASON CITY     LGT SNOW  15  12  88 N16       30.25R FOG     WCI  -1
6HR MIN TEMP:  12; 6HR MAX TEMP:  15; 6HR PCP: TRACE;

FOREST CITY *  LGT SNOW  16  12  86 NW17      30.25R WCI   0
WEBSTER CITY * FLURRIES  18  12  79 NW20      30.26R WCI   1
IOWA FALLS *   CLOUDY    16  12  86 NW13      30.26R WCI   2
$$

IAZ007>011-017>019-026>030-037>042-050>054-066-121300-
   NORTHEAST IOWA

CITY           SKY/WX    TMP DP  RH WIND       PRES   REMARKS
CEDAR RAPIDS   CLOUDY    19  16  88 NW17      30.21R WCI   4
6HR MIN TEMP:  15; 6HR MAX TEMP:  20;

CHARLES CITY * FLURRIES  14  14 100 NW13      30.23R WCI   0
CLINTON *      FLURRIES  20  16  84 W15       30.19S WCI   6
DECORAH *      CLOUDY    14   9  79 NW9       30.19R WCI   2
DUBUQUE        CLOUDY    16  11  80 NW13      30.16S WCI   2
6HR MIN TEMP:  10; 6HR MAX TEMP:  16;

MONTICELLO *   CLOUDY    18  12  79 NW20      30.20R WCI   1
OELWEIN *      CLOUDY    14  12  92 NW13      30.22R WCI   0
WATERLOO       CLOUDY    15  11  83 NW13      30.24R WCI   1
6HR MIN TEMP:  10; 6HR MAX TEMP:  16; 6HR PCP: TRACE;

$$

IAZ064-065-067-068-078-121300-
   EAST CENTRAL IOWA

CITY           SKY/WX    TMP DP  RH WIND       PRES   REMARKS
DAVENPORT      CLOUDY    20  16  84 W12       30.21R WCI   8
6HR MIN TEMP:  16; 6HR MAX TEMP:  20;

IOWA CITY      CLOUDY    21  17  84 NW10      30.24R WCI  10
6HR MIN TEMP:  15; 6HR MAX TEMP:  21;

MT. PLEASANT * CLOUDY    23  20  87 W7        30.23S WCI  15
MUSCATINE *    CLOUDY    23  19  86 W8        30.24R WCI  14
QUAD CITIES    CLOUDY    22  16  78 W8        30.21R WCI  12
6HR MIN TEMP:  19; 6HR MAX TEMP:  22;

$$

IAZ062-063-075>077-085>089-095>099-121300-
   SOUTHEAST IOWA

CITY           SKY/WX    TMP DP  RH WIND       PRES   REMARKS
BURLINGTON     CLOUDY    21  18  88 W5        30.22R WCI  15
6HR MIN TEMP:  21; 6HR MAX TEMP:  21; 6HR PCP: TRACE;

FAIRFIELD *    CLOUDY    21  18  86 W8        30.23S WCI  12
FORT MADISON * CLOUDY    19  18  93 W6        30.24R WCI  11
KEOKUK *       CLOUDY    19  18  93 CALM      30.23R
OSKALOOSA *    CLOUDY    20  18  91 NW13      30.25R WCI   7
CENTERVILLE *  CLOUDY    21  19  93 W10       30.25R WCI  10
OTTUMWA        CLOUDY    20  18  92 W9        30.24R WCI   9
6HR MIN TEMP:  17; 6HR MAX TEMP:  20;

WASHINGTON *   CLOUDY    21  19  93 W12       30.24S WCI   9
$$

ABBREVIATIONS USED IN REMARKS
   TC - TEMPERATURES IN CELSIUS
  WCI - WIND CHILL INDEX
   HX - HEAT INDEX
  VSB - VISIBILITY
$$





USA.gov is the U.S. government's official web portal to all federal, state and local government web resources and services.